Location: Mountain Grove
(34.0887°N, 86.6172°W)
Time: 15:19:38
(UTC+00:00)

Cosmos 1605 Rocket - Pass Details

Date: 14 July 2020
Orbit: 944 x 1006 km, 82.9° (Epoch: 12 August)

Event Time Altitude Azimuth Distance (km) Brightness Sun altitude
Exits shadow 06:25:58 58° 334° (NNW) 1,144 4.4 -33.7°
Drops below altitude 10° 06:31:04 10° 1° (N) 2,735 7.1 -33.6°
Sets 06:33:35 0° 4° (N) 3,677 8.1 -33.5°
